Regional Weather Roundup
Issued by NWS

Home | Current Version | Previous Version | Graphics & Text | Print | Product List | Glossary On
Versions: 1 2 3 4 5 6 7 8 9 10 11 12 13 14 15 16 17 18 19 20 21 22 23 24 25 26 27 28 29 30 31 32 33 34 35 36 37 38 39 40 41 42 43 44 45 46 47 48 49 50
244
ASUS43 KOAX 081002
RWRNE

WEATHER ROUNDUP FOR NEBRASKA
NATIONAL WEATHER SERVICE OMAHA NE
400 AM CST MON FEB 08 2016

NOTES: SATELLITE DATA IS BEING USED TO AUGMENT CLOUD COVER ABOVE
       12000 FEET.
       "FAIR" INDICATES FEW OR NO CLOUDS BELOW 12,000 FEET WITH NO
       SIGNIFICANT WEATHER AND/OR OBSTRUCTIONS TO VISIBILITY.

  * THESE STATIONS DO NOT REPORT WEATHER SUCH AS RAIN...SNOW OR FOG.

NEZ001>004-019>022-054>056-081100-
NEBRASKA PANHANDLE

CITY           SKY/WX    TMP DP  RH WIND       PRES   REMARKS
SCOTTSBLUFF    CLEAR     23  11  60 W14       30.35F WCI  11
ALLIANCE       CLEAR     21  11  65 W18       30.28F WCI   6
CHADRON        CLEAR     24  13  62 W17       30.35R WCI  11
SIDNEY         CLEAR     24  10  55 NW23      30.30F WCI   9
$$

NEZ057>060-069>072-079>082-081100-
SOUTHWEST NEBRASKA

CITY           SKY/WX    TMP DP  RH WIND       PRES   REMARKS
NORTH PLATTE   CLEAR     25  13  60 W15       30.24R WCI  13
IMPERIAL       CLEAR     25  12  58 NW16G26   30.29S WCI  12
MCCOOK         CLEAR     24  13  62 NW15      30.27R WCI  11
$$

NEZ005>010-023>029-035>040-094-081100-
NORTH CENTRAL NEBRASKA

CITY           SKY/WX    TMP DP  RH WIND       PRES   REMARKS
VALENTINE      CLEAR     27  16  63 NW24G33   30.19F WCI  12
AINSWORTH      CLEAR     28  17  61 NW28G39   30.16S WCI  13
BROKEN BOW     CLEAR     29  16  58 NW29G40   30.15R WCI  14
ORD            CLEAR     29  17  61 NW24G41   30.11S WCI  15
$$

NEZ041-046>049-061>064-073>077-083>087-081100-
SOUTH CENTRAL NEBRASKA

CITY           SKY/WX    TMP DP  RH WIND       PRES   REMARKS
GRAND ISLAND   PTCLDY    30  17  58 NW26      30.11S WCI  16
HASTINGS       CLEAR     29  17  61 NW23G32   30.11S WCI  15
HEBRON         CLOUDY    33  20  59 NW18G26   30.11S WCI  22
$$

NEZ011>018-030>034-042>045-081100-
NORTHEAST NEBRASKA

CITY           SKY/WX    TMP DP  RH WIND       PRES   REMARKS
NORFOLK        CLOUDY    29  19  66 N28G45    30.03R WCI  14
COLUMBUS *     CLOUDY    30  18  59 NW17G24   30.06R WCI  18
FREMONT        PTCLDY    28  17  66 NW23G30   30.03S WCI  13
TEKAMAH        LGT SNOW  30  21  69 NW20      30.00S WCI  18
$$

NEZ050>053-065>068-078-088>093-081100-
SOUTHEAST NEBRASKA

CITY           SKY/WX    TMP DP  RH WIND       PRES   REMARKS
LINCOLN        CLOUDY    31  24  75 N18       30.06R WCI  19
OMAHA EPPLEY   CLOUDY    29  21  72 NW21G28   30.00R WCI  16
BEATRICE       CLOUDY    33  22  63 NW26      30.04F WCI  20
FALLS CITY     MOCLDY    33  22  63 NW22G32   30.00S WCI  21
NEBRASKA CITY  CLOUDY    31  21  66 N25G35    30.01R WCI  17
$$

NEZ044-045-051>053-067-081100-
OMAHA AREA

CITY           SKY/WX    TMP DP  RH WIND       PRES   REMARKS
OMAHA EPPLEY   CLOUDY    29  21  72 NW21G28   30.00R WCI  16
FREMONT        PTCLDY    28  17  66 NW23G30   30.03S WCI  13
OFFUTT AFB     CLOUDY    29  19  66 NW21      29.99S WCI  16
WAHOO          CLOUDY    29  20  68 NW24G35   30.02S WCI  15
$$




USA.gov is the U.S. government's official web portal to all federal, state and local government web resources and services.